Regional Weather Roundup
Issued by NWS

Home | Current Version | Previous Version | Text Only | Print | Product List | Glossary Off
Versions: 1 2 3 4 5 6 7 8 9 10 11 12 13 14 15 16 17 18 19 20 21 22 23 24 25 26 27 28 29 30 31 32 33 34 35 36 37 38 39 40 41 42 43 44 45 46 47 48 49 50

000
ASUS43 KMPX 061701
RWRMN
WEATHER ROUNDUP FOR MINNESOTA
NATIONAL WEATHER SERVICE TWIN CITIES/CHANHASSEN MN
1200 PM CDT MON JUL 06 2015


NOTE: "FAIR" INDICATES FEW OR NO CLOUDS BELOW 12,000 FEET WITH NO
SIGNIFICANT WEATHER AND/OR OBSTRUCTIONS TO VISIBILITY. N/A MEANS
CURRENT SKY AND/OR WEATHER CONDITIONS ARE NOT AVAILABLE.

MNZ060>063-068>070-061800-
   Twin Cities Metro

CITY           SKY/WX    TMP DP  RH WIND       PRES   REMARKS
TWIN CITIES    HVY RAIN  67  65  93 N15G29    29.85R FOG
ST PAUL        LGT RAIN  68  65  90 N22G29    29.84R
CRYSTAL        LGT RAIN  66  62  87 N14G22    29.87R FOG
BLAINE         LGT RAIN  66  64  94 N17       29.88R
LAKEVILLE      LGT RAIN  66  64  94 NW10      29.85R
EDEN PRAIRIE   LGT RAIN  67  64  90 NW14G22   29.85R FOG
SOUTH ST PAUL  LGT RAIN  68  66  94 N17G23    29.84R
LAKE ELMO      RAIN      68  64  88 N14G23    29.85R
$$
MNZ001>005-007-008-013>017-022>024-027-028-061800-
   Northwest Minnesota

CITY           SKY/WX    TMP DP  RH WIND       PRES   REMARKS
BEMIDJI        MOSUNNY   59  43  56 NW20G25   30.03R
HALLOCK        CLOUDY    57  48  72 NW15      30.10S
ROSEAU         PTSUNNY   57  48  72 NW13G18   30.07S
WARROAD        CLOUDY    55  48  76 NW17      30.07R
THIEF RVR FALL PTSUNNY   61  45  55 NW20G26   30.08S
CROOKSTON      PTSUNNY   63  50  63 N18G24    30.08F
FOSSTON        MOSUNNY   59  46  63 N13G23    30.07S
DETROIT LAKES  SUNNY     59  46  63 N12G23    30.06R
MOORHEAD       MOSUNNY   64  48  55 N23G29    30.08R
PARK RAPIDS    MOSUNNY   67  50  54 NW17G25   30.00R
MAHNOMEN       FAIR      59  45  60 N17G26    30.05S
$$
MNZ006-009>011-018-025>026-061800-
   North Central Minnesota

CITY           SKY/WX    TMP DP  RH WIND       PRES   REMARKS
BAUDETTE       LGT RAIN  57  46  66 NW18G28   30.02S
FLAG ISLAND    PTSUNNY   57  45  62 NW26G32   30.02F
INTL FALLS     MOSUNNY   62  47  57 NW13      29.97S
WASKISH        MOSUNNY   57  46  67 NW12G21   30.03R
BIG FORK       PTSUNNY   64  50  59 NW7G16    29.97S
LONGVILLE      CLOUDY    63  54  72 N10G18    29.98R
GRAND RAPIDS   CLOUDY    61  54  77 N13       29.97R
CRANE LAKE     CLOUDY    61  52  72 NW8       29.96R
COOK           CLOUDY    61  54  77 CALM      29.95S
WALKER         FAIR      62  49  62 NW10G22   30.00R
$$
MNZ012-019>021-037-061800-
   Northeast Minnesota

CITY           SKY/WX    TMP DP  RH WIND       PRES   REMARKS
DULUTH         LGT RAIN  63  58  83 N13       29.91R
ELY            CLOUDY    59  55  88 CALM      29.93R FOG
HIBBING        CLOUDY    61  55  81 NW13      29.94S HAZE
DULUTH HARBOR  RAIN      61  57  88 NE8       29.91R
TWO HARBORS    DRIZZLE   66  63  88 N7        29.88F
SILVER BAY     DRIZZLE   64  61  88 CALM      29.88S
GRAND MARAIS     N/A     60  58  92 CALM      29.87R
G MARAIS ARPRT LGT RAIN  61  55  82 N5        29.91R
$$
MNZ029>031-032-039>041-046>048-054>057-064-061800-
   West Central Minnesota

CITY           SKY/WX    TMP DP  RH WIND       PRES   REMARKS
FERGUS FALLS   MOSUNNY   64  50  59 N15G26    30.03R
WHEATON        MOSUNNY   64  52  63 NW22G29   30.05R
MORRIS         PTSUNNY   68  59  73 N22G28    29.99R HAZE
ALEXANDRIA     CLOUDY    67  59  75 N15G25    30.00R HAZE
ELBOW LAKE     FAIR      66  55  66 N18G26    30.02R
WADENA         MOSUNNY   66  54  63 NW14      30.00R
GLENWOOD         N/A     66  59  77 N16G24    29.99R HAZE
APPLETON       PTSUNNY   70  61  73 N16       29.99R HAZE
BENSON         CLOUDY    70  57  64 NE15G21   29.98R HAZE
ORTONVILLE     PTSUNNY   64  57  77 N24       30.02R HAZE
MADISON          N/A     66  63  88 N15       30.01R HAZE
WILLMAR        FAIR      70  63  78 N13G20    29.98R HAZE
$$
MNZ033>034-036-042>043-049>051-058-059-061800-
   Central Minnesota

CITY           SKY/WX    TMP DP  RH WIND       PRES   REMARKS
ST CLOUD       LGT RAIN  64  62  93 N10       29.92R FOG
SAUK CENTRE    CLOUDY    67  60  78 NW13G18   29.97R HAZE
PAYNESVILLE    CLOUDY    64  61  89 NW9       29.96R FOG
AITKIN         CLOUDY    63  57  82 N10       29.95R HAZE
PINE RIVER       N/A     64  54  68 N13G22    30.01R
BRAINERD       CLOUDY    65  58  78 N21       29.97R HAZE
STAPLES        CLOUDY    64  55  72 N13       29.98R HAZE
LONG PRAIRIE   CLOUDY    64  59  82 NW12G20   29.98R HAZE
LITTLE FALLS   CLOUDY    64  59  82 N6        29.95R HAZE
LITCHFIELD     CLOUDY    64  64 100 N12       29.95R FOG
BUFFALO        LGT RAIN  65  60  84 N9G17     29.93R
MAPLE LAKE     LGT RAIN  65  62  92 NW8G16    29.94R
$$
MNZ037-044-045-052-053-061800-
   East Central Minnesota

CITY           SKY/WX    TMP DP  RH WIND       PRES   REMARKS
PRINCETON      LGT RAIN  64  63  94 N10       29.92R
MORA           LGT RAIN  59  59 100 N7        29.93R
CAMBRIDGE      LGT RAIN  63  55  77 N8        29.90R
MOOSE LAKE     LGT RAIN  63  59  88 CALM      29.90R
HINCKLEY       LGT RAIN  63  61  94 N6        29.91R
CLOQUET        LGT RAIN  63  59  88 N9        29.92R
MCGREGOR       CLOUDY    61  59  94 N9        29.95R
$$
MNZ071>073-080-081-089-090-097-098-061800-
   Southwest Minnesota

CITY           SKY/WX    TMP DP  RH WIND       PRES   REMARKS
MONTEVIDEO     CLOUDY    70  64  83 NE14G21   29.98R FOG
GRANITE FALLS  CLOUDY    67  60  78 N9        29.98R HAZE
CANBY          CLOUDY    65  61  88 NW15      30.02R FOG
MARSHALL       CLOUDY    66  59  77 N13G21    29.96R
REDWOOD FALLS  CLOUDY    67  60  78 N12G21    29.95R HAZE
OLIVIA         CLOUDY    64  57  77 N9G17     29.95R HAZE
PIPESTONE      CLOUDY    66  61  82 N14G20    29.98R HAZE
WINDOM         CLOUDY    70  61  73 N22G29    29.93R HAZE
WORTHINGTON    CLOUDY    70  61  73 N23G30    29.95R
JACKSON        CLOUDY    64  61  88 N12G25    29.94R FOG
TRACY          CLOUDY    69  65  88 N17G23    29.97R FOG
SLAYTON        CLOUDY    68  64  86 N17G28    29.98R FOG
$$
MNZ065>067-074>077-082>085-091>093-061800-
   South Central Minnesota

CITY           SKY/WX    TMP DP  RH WIND       PRES   REMARKS
MANKATO        CLOUDY    66  64  94 N21       29.87R
NEW ULM        CLOUDY    66  63  88 N17       29.91R HAZE
ST JAMES       CLOUDY    66  64  94 NW16      29.92R FOG
FAIRMONT       CLOUDY    70  63  78 N22G30    29.88R
GLENCOE        LGT RAIN  67  64  90 N16G23    29.90R
OWATONNA       RAIN      70  68  94 SW10G18   29.85R
WASECA         LGT RAIN  70  68  94 SW9G16    29.91R
ALBERT LEA     DRIZZLE   72  70  94 SW7       29.84S
$$
MNZ078>079-086>088-094>096-061800-
   Southeast Minnesota

CITY           SKY/WX    TMP DP  RH WIND       PRES   REMARKS
ROCHESTER      CLOUDY    73  68  84 SW12      29.84F
RED WING       LGT RAIN  75  72  88 W9        29.79S
DODGE CENTER   LGT RAIN  73  70  88 SW14G21   29.85R
WINONA         CLOUDY    77  70  78 SW8       29.81F
AUSTIN         CLOUDY    73  70  88 SW10      29.84S
PRESTON        CLOUDY    71  66  83 SW9       29.84F
$$
ABBREVIATIONS USED IN REMARKS
   TC - TEMPERATURES IN CELSIUS
  WCI - WIND CHILL INDEX
   HX - HEAT INDEX
  VSB - VISIBILITY
$$


USA.gov is the U.S. government's official web portal to all federal, state and local government web resources and services.